Aérodrome :
LOGIN :

S'inscrire | Disclaimer

   EN    FR    IT 

 










Légende :    VFR   VFR Marginal   IFR   IFR Intensif   IFR Très Intensif
Visi : 
Plafond : 
>= 8 km
>= 3000ft
5 à 8 km
1000 à 3000 ft
1500m à 5 km
500 à 1000 ft
800 à 1500m
200 à 500 ft
< 800m
< 200 ft
Symboles :   Orages  Brouillard  Fortes neiges  Fortes précipitations  Vent > 20 kt
SIGMETs :   Divers  Orages  Givrage  Turbulence  Onde Orograph.  Cendres Volcan.







- Altitude de l'aérodrome : 479 ft
- Code IATA : DOL
- Voir les cartes d'approche


LFRG - Deauville

DERNIER METAR :
  • 121800Z AUTO 21006KT CAVOK 03/02 Q1013 NOSIG

METARs EXPIRÉS :
  • 121730Z AUTO 21006KT CAVOK 03/02 Q1013 NOSIG
  • 121700Z AUTO 21006KT CAVOK 04/01 Q1013 NOSIG
  • 121630Z AUTO 22005KT CAVOK 03/01 Q1013 NOSIG
  • 121600Z AUTO 22005KT 9999 FEW025 SCT190 04/01 Q1013 NOSIG
  • 121530Z AUTO 24006KT 210V270 9999 OVC038 06/02 Q1012 NOSIG

TAF TAF LFRG
Valide du 12 à 15h jusqu'au 13 à 00h UTC


121400Z 1215/1224 22008KT 9999 SCT030
BECMG 1221/1224 20013KT
ATIS : +33 2 31 65 65 36
Pas de NOTAMs connus pour ce terrain.



MET'MAP, la Météo Aéronautique d'un coup d'oeil ! - Copyright ORBIFLY Décembre 2007 - Disclaimer

ORBIFLY MET'MAP TEAM :

Programmation & Développement : Alexandra Zaïnal
Conception & Développement : Baudouin d'Aumeries
Co-Programmation & Développement : Marc-Olivier Méhu
Soutien technique & logistique : Manuel Goepfert

Contact : metmap@orbifly.com




SOURCES & CREDITS :

   NOAA